Tracking 30415 objects as of 15-May-2025
HD Live streaming from Space Station
objects crossing your sky now

THOR ABLESTAR DEB

Track THOR ABLESTAR DEB now!
10-day predictions


NORAD ID: 357
Int'l Code: 1961-015DX
Perigee: 868.3 km
Apogee: 874.6 km
Inclination: 66.8 °
Period: 102.2 minutes
Semi major axis: 7242 km
RCS: 0.059 m2 (small)
Launch date: June 29, 1961
Source: United States (US)
Launch site: AIR FORCE EASTERN TEST RANGE (AFETR)

Note: This is SATELLITE DEBRIS
Your satellite tracking list
Your tracking list is empty




NASA's NSSDC Master Catalog

Two Line Element Set (TLE):
1 00357U 61015DX  25134.45792649  .00000796  00000-0  50942-3 0  9994
2 00357  66.8070 169.3711 0004336 166.9030 193.2171 14.08563902239683
Source of the keplerian elements: AFSPC